$Date,$Time,DM0201B,DM0203B,DM0205B,DM0207B,DM0209B
06/06/99,00:00:01,0,0,0,0,0
06/06/99,00:05:01,635,163,-16,0,968
06/06/99,00:10:01,586,163,-16,0,968
06/06/99,00:15:01,652,163,-16,0,968
06/06/99,00:20:01,547,163,-16,0,970
06/06/99,00:25:01,552,163,-16,0,970
06/06/99,00:30:01,565,172,-16,0,970
06/06/99,00:35:01,573,171,-16,0,970
06/06/99,00:40:01,649,171,-14,0,968
06/06/99,00:45:01,678,171,-14,0,968
06/06/99,00:50:01,574,161,-14,0,968
06/06/99,00:55:01,645,171,-14,0,968
06/06/99,01:00:01,713,171,-14,0,968
06/06/99,01:05:01,685,171,-14,0,968
06/06/99,01:10:01,714,162,-14,0,970
06/06/99,01:15:01,671,162,-14,0,968
06/06/99,01:20:01,705,162,-14,0,970
06/06/99,01:25:01,683,162,-14,0,968
06/06/99,01:30:01,656,170,-14,0,970
06/06/99,01:35:01,670,167,-14,0,968
06/06/99,01:40:01,702,157,-14,0,968
06/06/99,01:45:01,726,169,-14,0,968
06/06/99,01:50:01,709,169,-14,0,968
06/06/99,01:55:01,653,158,-14,0,970
06/06/99,02:00:01,723,158,-14,0,970
06/06/99,02:05:01,708,158,-14,0,970
06/06/99,02:10:01,660,160,-14,0,970
06/06/99,02:15:01,677,170,-14,0,970
06/06/99,02:20:01,737,160,-14,0,968
06/06/99,02:25:01,628,162,-14,0,970
06/06/99,02:30:01,601,162,-14,0,970
06/06/99,02:35:01,636,162,-14,0,970
06/06/99,02:40:01,606,162,-14,0,970
06/06/99,02:45:01,651,162,-14,0,970
06/06/99,02:50:01,680,163,-14,0,970
06/06/99,02:55:01,726,173,-14,0,970
06/06/99,03:00:01,680,161,-14,0,970
06/06/99,03:05:01,685,171,-14,0,970
06/06/99,03:10:01,753,171,-14,0,970
06/06/99,03:15:01,693,170,-14,0,970
06/06/99,03:20:01,671,170,-14,0,970
06/06/99,03:25:01,715,172,-14,0,970
06/06/99,03:30:01,778,175,-14,0,970
06/06/99,03:35:01,715,164,-14,0,970
06/06/99,03:40:01,705,164,-14,0,970
06/06/99,03:45:01,749,164,-14,0,970
06/06/99,03:50:01,669,164,-14,0,970
06/06/99,03:55:01,662,164,-14,0,970
06/06/99,04:00:01,623,164,-14,0,970
06/06/99,04:05:01,664,164,-14,0,970
06/06/99,04:10:01,691,164,-14,0,970
06/06/99,04:15:01,714,164,-14,0,970
06/06/99,04:20:01,691,164,-14,0,970
06/06/99,04:25:01,678,167,-14,0,970
06/06/99,04:30:01,602,167,-14,0,970
06/06/99,04:35:01,655,167,-14,0,970
06/06/99,04:40:01,647,169,-14,0,970
06/06/99,04:45:01,629,164,-14,0,970
06/06/99,04:50:01,673,164,-14,0,970
06/06/99,04:55:01,603,164,-14,0,972
06/06/99,05:00:01,703,165,-14,0,970
06/06/99,05:05:01,645,154,-14,0,970
06/06/99,05:10:01,622,166,-14,0,972
06/06/99,05:15:01,687,168,-14,0,972
06/06/99,05:20:01,495,168,-14,0,972
06/06/99,05:25:01,606,154,-14,0,972
06/06/99,05:30:01,597,163,-14,0,972
06/06/99,05:35:01,586,163,-14,0,972
06/06/99,05:40:01,598,163,-14,0,972
06/06/99,05:45:01,615,163,-14,0,972
06/06/99,05:50:01,649,163,-14,0,972
06/06/99,05:55:01,657,163,-14,0,972
06/06/99,06:00:01,543,163,-14,0,972
06/06/99,06:05:01,594,163,-14,0,972
06/06/99,06:10:01,610,166,-14,0,972
06/06/99,06:15:01,578,166,-14,0,972
06/06/99,06:20:01,613,166,-14,0,972
06/06/99,06:25:01,587,166,-14,0,972
06/06/99,06:30:01,751,166,-14,0,972
06/06/99,06:35:01,697,169,-14,0,972
06/06/99,06:40:01,644,160,-14,0,972
06/06/99,06:45:01,590,160,-14,0,972
06/06/99,06:50:01,539,160,-14,0,972
06/06/99,06:55:01,635,160,-14,0,972
06/06/99,07:00:01,638,160,-14,0,972
06/06/99,07:05:01,622,154,-14,0,972
06/06/99,07:10:01,596,161,-14,0,972
06/06/99,07:15:01,594,161,-14,0,972
06/06/99,07:20:01,602,161,-14,0,972
06/06/99,07:25:01,597,161,-14,0,972
06/06/99,07:30:01,568,161,-14,0,972
06/06/99,07:35:01,596,161,-14,0,972
06/06/99,07:40:01,622,161,-14,0,972
06/06/99,07:45:01,639,161,-14,0,972
06/06/99,07:50:01,594,161,-14,0,972
06/06/99,07:55:01,668,161,-14,0,972
06/06/99,08:00:01,654,161,-14,0,972
06/06/99,08:05:01,640,171,-14,0,972
06/06/99,08:10:01,670,161,-14,0,972
06/06/99,08:15:01,603,162,-14,0,972
06/06/99,08:20:01,578,164,-14,0,972
06/06/99,08:25:01,599,160,-14,0,972
06/06/99,08:30:01,624,165,-14,0,974
06/06/99,08:35:01,626,165,-14,0,972
06/06/99,08:40:01,586,169,-14,0,972
06/06/99,08:45:01,482,169,-14,0,972
06/06/99,08:50:01,694,169,-14,0,972
06/06/99,08:55:01,625,167,-14,0,974
06/06/99,09:00:01,560,167,-14,0,974
06/06/99,09:05:01,610,166,-14,0,974
06/06/99,09:10:01,658,166,-14,0,972
06/06/99,09:15:01,690,165,-14,0,972
06/06/99,09:20:01,619,165,-14,0,974
06/06/99,09:25:01,618,165,-14,0,974
06/06/99,09:30:01,605,165,-14,0,972
06/06/99,09:35:01,601,165,-14,0,974
06/06/99,09:40:01,603,163,-14,0,972
06/06/99,09:45:01,602,163,-14,0,974
06/06/99,09:50:01,594,163,-14,0,974
06/06/99,09:55:01,682,162,-14,0,974
06/06/99,10:00:01,644,162,-14,0,974
06/06/99,10:05:01,625,162,-14,0,974
06/06/99,10:10:01,635,162,-14,0,974
06/06/99,10:15:01,483,162,-14,0,974
06/06/99,10:20:01,675,162,-14,0,974
06/06/99,10:25:01,613,171,-14,0,974
06/06/99,10:30:01,572,163,-14,0,974
06/06/99,10:35:01,637,163,-14,0,974
06/06/99,10:40:01,543,162,-14,0,974
06/06/99,10:45:01,646,162,-14,0,974
06/06/99,10:50:01,531,172,-14,0,974
06/06/99,10:55:01,642,156,-14,0,974
06/06/99,11:00:01,613,168,-14,0,974
06/06/99,11:05:01,597,168,-14,0,974
06/06/99,11:10:01,593,162,-14,0,974
06/06/99,11:15:01,600,172,-14,0,974
06/06/99,11:20:01,660,171,-14,0,974
06/06/99,11:25:01,636,172,-14,0,974
06/06/99,11:30:01,689,172,-14,0,974
06/06/99,11:35:01,598,172,-14,0,974
06/06/99,11:40:01,574,171,-14,0,974
06/06/99,11:45:01,558,170,-14,0,974
06/06/99,11:50:01,567,161,-14,0,974
06/06/99,11:55:01,577,160,-14,0,974
06/06/99,12:00:01,657,164,-14,0,974
06/06/99,12:05:01,581,167,-14,0,974
06/06/99,12:10:01,683,167,-14,0,974
06/06/99,12:15:01,618,167,-14,0,974
06/06/99,12:20:01,620,167,-14,0,974
06/06/99,12:25:01,648,167,-14,0,974
06/06/99,12:30:01,603,167,-14,0,974
06/06/99,12:35:01,560,167,-14,0,974
06/06/99,12:40:01,689,178,-14,0,974
06/06/99,12:45:01,539,162,-14,0,974
06/06/99,12:50:01,597,167,-14,0,974
06/06/99,12:55:01,635,174,-14,0,974
06/06/99,13:00:01,629,174,-14,0,974
06/06/99,13:05:01,638,176,-14,0,974
06/06/99,13:10:01,677,171,-14,0,974
06/06/99,13:15:01,587,171,-14,0,974
06/06/99,13:20:01,627,171,-14,0,974
06/06/99,13:25:01,563,161,-14,0,974
06/06/99,13:30:01,563,171,-14,0,974
06/06/99,13:35:01,647,165,-14,0,974
06/06/99,13:40:01,549,165,-14,0,974
06/06/99,13:45:01,551,165,-14,0,974
06/06/99,13:50:01,598,171,-14,0,974
06/06/99,13:55:01,548,171,-14,0,974
06/06/99,14:00:01,665,171,-14,0,974
06/06/99,14:05:01,579,171,-14,0,974
06/06/99,14:10:01,687,171,-14,0,974
06/06/99,14:15:01,643,171,-14,0,974
06/06/99,14:20:01,577,171,-14,0,974
06/06/99,14:25:01,585,171,-14,0,974
06/06/99,14:30:01,602,173,-14,0,976
06/06/99,14:35:01,526,170,-14,0,976
06/06/99,14:40:01,574,169,-14,0,974
06/06/99,14:45:01,554,167,-14,0,974
06/06/99,14:50:01,531,167,-14,0,974
06/06/99,14:55:01,552,167,-14,0,974
06/06/99,15:00:01,505,167,-14,0,974
06/06/99,15:05:01,517,168,-14,0,974
06/06/99,15:10:01,582,168,-14,0,974
06/06/99,15:15:01,531,168,-14,0,974
06/06/99,15:20:01,579,168,-14,0,976
06/06/99,15:25:01,573,168,-14,0,976
06/06/99,15:30:01,597,167,-14,0,976
06/06/99,15:35:01,521,167,-14,0,976
06/06/99,15:40:01,518,167,-14,0,976
06/06/99,15:45:01,516,166,-14,0,976
06/06/99,15:50:01,525,166,-14,0,976
06/06/99,15:55:01,536,166,-14,0,976
06/06/99,16:00:01,541,176,-14,0,976
06/06/99,16:05:01,573,173,-14,0,976
06/06/99,16:10:01,567,163,-14,0,976
06/06/99,16:15:01,555,169,-14,0,974
06/06/99,16:20:01,537,169,-14,0,974
06/06/99,16:25:01,561,169,-14,0,974
06/06/99,16:30:01,573,169,-14,0,976
06/06/99,16:35:01,532,179,-14,0,976
06/06/99,16:40:01,535,167,-14,0,976
06/06/99,16:45:01,494,177,-14,0,976
06/06/99,16:50:01,496,175,-14,0,976
06/06/99,16:55:01,566,176,-14,0,976
06/06/99,17:00:01,530,173,-14,0,976
06/06/99,17:05:01,518,173,-14,0,976
06/06/99,17:10:01,476,173,-14,0,976
06/06/99,17:15:01,482,173,-14,0,976
06/06/99,17:20:01,505,174,-14,0,974
06/06/99,17:25:01,550,174,-14,0,976
06/06/99,17:30:01,402,174,-14,0,976
06/06/99,17:35:01,438,174,-14,0,976
06/06/99,17:40:01,388,174,-14,0,976
06/06/99,17:45:01,428,174,-14,0,976
06/06/99,17:50:01,452,174,-14,0,976
06/06/99,17:55:01,408,174,-14,0,976
06/06/99,18:00:01,414,176,-14,0,976
06/06/99,18:05:01,414,176,-14,0,976
06/06/99,18:10:01,350,174,-14,0,976
06/06/99,18:15:01,322,165,-14,0,976
06/06/99,18:20:01,214,143,-14,0,976
06/06/99,18:25:01,215,134,-16,0,976
06/06/99,18:30:01,224,157,-16,0,976
06/06/99,18:35:01,160,168,-16,0,976
06/06/99,18:40:01,268,167,-16,0,976
06/06/99,18:45:01,191,157,-16,0,976
06/06/99,18:50:01,99,141,-16,0,976
06/06/99,18:55:01,33,112,-16,0,976
06/06/99,19:00:01,81,144,-16,0,976
06/06/99,19:05:01,43,117,-16,0,976
06/06/99,19:10:01,144,173,-16,0,976
06/06/99,19:15:01,95,162,-16,0,976
06/06/99,19:20:01,120,188,-16,0,976
06/06/99,19:25:01,39,188,-16,0,976
06/06/99,19:30:01,22,30,-16,0,976
06/06/99,19:35:01,18,26,-16,0,976
06/06/99,19:40:01,43,28,-16,0,976
06/06/99,19:45:01,18,28,-16,0,976
06/06/99,19:50:01,1,28,-16,0,976
06/06/99,19:55:01,11,28,-16,0,976
06/06/99,20:00:01,17,25,-16,0,976
06/06/99,20:05:01,23,357,-16,0,976
06/06/99,20:10:01,8,357,-16,0,976
06/06/99,20:15:01,8,357,-16,0,976
06/06/99,20:20:01,9,357,-16,0,976
06/06/99,20:25:01,49,93,-16,0,976
06/06/99,20:30:01,48,78,-16,0,976
06/06/99,20:35:01,37,78,-16,0,976
06/06/99,20:40:01,27,78,-16,0,976
06/06/99,20:45:01,7,78,-16,0,976
06/06/99,20:50:01,7,78,-16,0,976
06/06/99,20:55:01,7,159,-16,0,976
06/06/99,21:00:01,7,159,-16,0,976
06/06/99,21:05:01,16,159,-16,0,976
06/06/99,21:10:01,6,159,-16,0,976
06/06/99,21:15:01,6,159,-16,0,976
06/06/99,21:20:01,6,159,-16,0,976
06/06/99,21:25:01,6,159,-16,0,976
06/06/99,21:30:01,9,159,-16,0,976
06/06/99,21:35:01,23,159,-16,0,976
06/06/99,21:40:01,62,174,-16,0,976
06/06/99,21:45:01,69,185,-16,0,976
06/06/99,21:50:01,69,173,-16,0,976
06/06/99,21:55:01,29,173,-16,0,976
06/06/99,22:00:01,10,192,-16,0,976
06/06/99,22:05:01,10,192,-18,0,976
06/06/99,22:10:01,10,192,-18,0,976
06/06/99,22:15:01,0,192,-18,0,976
06/06/99,22:20:01,10,192,-18,0,976
06/06/99,22:25:01,16,192,-18,0,976
06/06/99,22:30:01,16,192,-18,0,976
06/06/99,22:35:01,8,192,-18,0,976
06/06/99,22:40:01,8,192,-18,0,976
06/06/99,22:45:01,8,192,-18,0,976
06/06/99,22:50:01,4,192,-18,0,976
06/06/99,22:55:01,4,192,-18,0,976
06/06/99,23:00:01,29,192,-18,0,976
06/06/99,23:05:01,7,192,-18,0,976
06/06/99,23:10:01,7,192,-18,0,976
06/06/99,23:15:01,7,192,-18,0,976
06/06/99,23:20:01,7,192,-18,0,976
06/06/99,23:25:01,17,192,-18,0,976
06/06/99,23:30:01,16,192,-18,0,976
06/06/99,23:35:01,22,192,-18,0,976
06/06/99,23:40:01,92,192,-18,0,976
06/06/99,23:45:01,77,192,-18,0,976
06/06/99,23:50:01,88,192,-18,0,976
06/06/99,23:55:01,40,192,-18,0,976
06/07/99,00:00:01,30,192,-18,0,976
